User: anonymous
Location: USNO
(38.9242°N, 77.0663°W)
Time: 07:42:46
(UTC-04:00)
Language:

Cosmos 1206 Rocket - Orbit

View from above orbital plane
View from above orbital plane
View from above satellite
View from above satellite

Ground track
Ground track

The orbit data is extracted from the following two-line orbital elements,

1 11933U 80069B   14114.07884090  .00309449  36432-4  77200-3 0  3205
2 11933 081.1915 052.8864 0011160 129.5473 230.6787 15.95615351854727
Epoch (UTC): 24 April 2014 01:53:31
Eccentricity: 0.0011160
inclination: 81.1915°
perigee height: 279 km
apogee height: 294 km
right ascension of ascending node: 52.8864°
argument of perigee: 129.5473°
revolutions per day: 15.95615351
mean anomaly at epoch: 230.6787°
orbit number at epoch: 85472

The dashed part of the orbit path shows where the satellite is in the earth's shadow,  

DLR